Weather History for KLEE - June, 2014

Change the Weather History Date:

Saturday, June 21, 2014

  Actual Average Record
Temperature  
Mean Temperature 81 °F -  
Max Temperature 89 °F 90 °F 98 °F (2011)
Min Temperature 73 °F 71 °F 61 °F (1965)
Cooling Degree Days 16    
Growing Degree Days 31 (Base 50)    
Moisture  
Dew Point 72 °F    
Average Humidity 73    
Maximum Humidity 93    
Minimum Humidity 53    
Precipitation  
Precipitation 0.00 in - - ()
Sea Level Pressure  
Sea Level Pressure 29.99 in    
Wind  
Wind Speed 6 mph (West)    
Max Wind Speed 17 mph    
Max Gust Speed 31 mph    
Visibility 10 miles    
Events Thunderstorm    
Averages and records for this station are not official NWS values.
T = Trace of Precipitation, MM = Missing Value Source: NWS Daily Summary

Daily Weather History Graph

Daily Weather History Graph

Search for Another Location

Airport or City:

Trip Planner

Search our weather history database for the weather conditions in past years. The results will help you decide how hot, cold, wet, or windy it might be!

Date:

Astronomy

Jun. 21, 2014 Rise Set
Actual Time 6:29 AM EDT 8:28 PM EDT
Civil Twilight 6:02 AM EDT 8:55 PM EDT
Nautical Twilight 5:29 AM EDT 9:28 PM EDT
Astronomical Twilight 4:54 AM EDT 10:03 PM EDT
Moon 2:19 AM EDT (6/21) 3:24 PM EDT (6/21)
Length of Visible Light 14h 53m
Length of Day
13h 59m
Waning Crescent, 30% of the Moon is Illuminated
Jun 21
Waning Crescent
Jun 27
New
Jul 5
First Quarter
Jul 12
Full
Jul 18
Last Quarter

Hourly Weather History & Observations

Time (EDT) Temp. Heat Index Dew Point Humidity Pressure Visibility Wind Dir Wind Speed Gust Speed Precip Events Conditions
12:53 AM 73.9 °F - 72.0 °F 93% 30.01 in 10.0 mi Calm Calm - N/A   Partly Cloudy
1:53 AM 73.0 °F - 71.1 °F 93% 30.00 in 10.0 mi SW 3.5 mph - N/A   Clear
2:53 AM 73.0 °F - 71.1 °F 93% 29.99 in 10.0 mi NW 3.5 mph - N/A   Clear
3:53 AM 73.9 °F - 71.1 °F 91% 29.98 in 10.0 mi WNW 3.5 mph - N/A   Clear
4:53 AM 75.0 °F - 70.0 °F 84% 29.97 in 10.0 mi West 4.6 mph - N/A   Clear
5:53 AM 75.0 °F - 72.0 °F 90% 29.97 in 10.0 mi WSW 4.6 mph - N/A   Clear
6:53 AM 75.0 °F - 72.0 °F 90% 29.99 in 10.0 mi West 4.6 mph - N/A   Clear
7:53 AM 77.0 °F - 73.9 °F 90% 30.00 in 10.0 mi WSW 6.9 mph - N/A   Clear
8:53 AM 80.1 °F 85.1 °F 75.0 °F 85% 30.02 in 10.0 mi WSW 4.6 mph - N/A   Clear
9:53 AM 84.0 °F 91.9 °F 75.0 °F 74% 30.02 in 10.0 mi WNW 8.1 mph - N/A   Clear
10:53 AM 86.0 °F 93.8 °F 73.9 °F 67% 30.01 in 10.0 mi WNW 10.4 mph - N/A   Clear
11:53 AM 88.0 °F 97.5 °F 75.0 °F 65% 30.02 in 10.0 mi WNW 9.2 mph - N/A   Clear
12:05 PM 88.0 °F 96.5 °F 73.9 °F 63% 30.02 in 10.0 mi West 8.1 mph - N/A Thunderstorm Partly Cloudy
12:14 PM 89.1 °F 98.0 °F 73.9 °F 61% 30.03 in 10.0 mi WNW 17.3 mph 31.1 mph N/A Thunderstorm Thunderstorm
12:29 PM 82.0 °F 84.9 °F 68.0 °F 62% 30.04 in 10.0 mi NW 15.0 mph 25.3 mph N/A Thunderstorm Mostly Cloudy
12:40 PM 79.0 °F - 68.0 °F 69% 30.04 in 10.0 mi NNW 15.0 mph 24.2 mph N/A Thunderstorm Thunderstorm
12:53 PM 80.1 °F 82.3 °F 66.9 °F 64% 30.03 in 10.0 mi NNW 12.7 mph 21.9 mph N/A Thunderstorm Thunderstorm
1:01 PM 81.0 °F 83.3 °F 66.9 °F 62% 30.02 in 10.0 mi NW 8.1 mph - N/A Thunderstorm Clear
1:22 PM 79.0 °F - 66.9 °F 66% 30.02 in 10.0 mi WNW 6.9 mph - N/A   Clear
1:53 PM 79.0 °F - 66.9 °F 66% 30.00 in 10.0 mi WNW 9.2 mph - N/A   Clear
2:53 PM 84.9 °F 90.1 °F 71.1 °F 63% 29.97 in 10.0 mi West 9.2 mph - N/A   Clear
3:53 PM 87.1 °F 93.6 °F 72.0 °F 61% 29.95 in 10.0 mi NW 10.4 mph - N/A   Clear
4:53 PM 87.1 °F 93.6 °F 72.0 °F 61% 29.92 in 10.0 mi WNW 6.9 mph - N/A   Clear
5:53 PM 89.1 °F 94.1 °F 70.0 °F 53% 29.93 in 10.0 mi WNW 8.1 mph - N/A   Clear
6:53 PM 86.0 °F 91.5 °F 71.1 °F 61% 29.92 in 10.0 mi WNW 5.8 mph - N/A   Clear
7:53 PM 86.0 °F 92.2 °F 72.0 °F 63% 29.93 in 10.0 mi West 5.8 mph - N/A   Clear
8:42 PM 82.9 °F 88.8 °F 73.0 °F 72% 29.94 in 10.0 mi WNW 4.6 mph - N/A   Partly Cloudy
8:53 PM 82.0 °F 87.9 °F 73.9 °F 76% 29.94 in 10.0 mi WNW 4.6 mph - N/A   Partly Cloudy
9:53 PM 82.9 °F 90.2 °F 75.0 °F 77% 29.98 in 10.0 mi SW 5.8 mph - N/A   Clear
10:53 PM 80.1 °F 84.2 °F 73.0 °F 79% 29.99 in 10.0 mi SW 5.8 mph - N/A   Partly Cloudy
11:53 PM 78.1 °F - 70.0 °F 76% 29.97 in 10.0 mi SW 5.8 mph - N/A   Clear